Ash Shahamah, UAE

3:49 PM +04 on June 26, 2017 (GMT +0400)
Ash Shahamah

Weather History for 41217 - November, 2013

Change the Weather History Date:

Saturday, November 2, 2013

  Actual Average Record
Temperature  
Mean Temperature 86 °F -  
Max Temperature 98 °F 85 °F - ()
Min Temperature 74 °F 65 °F - ()
Cooling Degree Days 21    
Growing Degree Days 36 (Base 50)    
Moisture  
Dew Point 62 °F    
Average Humidity 49    
Maximum Humidity 78    
Minimum Humidity 12    
Precipitation  
Precipitation 0.00 in 0.00 in - ()
Sea Level Pressure  
Sea Level Pressure 29.92 in    
Wind  
Wind Speed 6 mph ()    
Max Wind Speed 13 mph    
Max Gust Speed -    
Visibility 5.5 miles    
Events      
T = Trace of Precipitation, MM = Missing Value Source: Averaged Metar Reports

Daily Weather History Graph

Daily Weather History Graph

Search for Another Location

Airport or City:

Trip Planner

Search our weather history database for the weather conditions in past years. The results will help you decide how hot, cold, wet, or windy it might be!

Date:

Astronomy

Nov. 02, 2013 Rise Set
Actual Time 6:28 AM +04 5:40 PM +04
Civil Twilight 6:05 AM +04 6:04 PM +04
Nautical Twilight 5:38 AM +04 6:31 PM +04
Astronomical Twilight 5:11 AM +04 6:58 PM +04
Moon 5:06 AM +04 (11/2) 4:51 PM +04 (11/2)
Length of Visible Light 11h 59m
Length of Day
11h 12m
Waning Crescent, 2% of the Moon is Illuminated
Nov 2
Waning Crescent
Nov 3
New
Nov 10
First Quarter
Nov 17
Full
Nov 25
Last Quarter

Hourly Weather History & Observations

Time (+04) Temp. Heat Index Dew Point Humidity Pressure Visibility Wind Dir Wind Speed Gust Speed Precip Events Conditions
12:00 AM 82.4 °F 87.2 °F 71.6 °F 70% 29.89 in - North 4.6 mph - N/A   Clear
1:00 AM 80 °F - 71 °F 68% 29.89 in 6 mi East 4.6 mph - -  
1:00 AM 80.6 °F 84.6 °F 71.6 °F 74% 29.89 in - East 4.6 mph - N/A   Clear
2:00 AM 78.8 °F - 71.6 °F 78% 29.89 in - SSE 3.5 mph - N/A   Clear
3:00 AM 78.8 °F - 69.8 °F 74% 29.89 in - South 3.5 mph - N/A   Clear
4:00 AM 78 °F - 68 °F 65% 29.89 in 6 mi SSE 3.5 mph - -  
4:00 AM 78.8 °F - 68.0 °F 69% 29.89 in - South 3.5 mph - N/A   Clear
5:00 AM 77.0 °F - 68.0 °F 74% 29.89 in - SSE 4.6 mph - N/A   Clear
6:00 AM 75.2 °F - 62.6 °F 65% 29.92 in - SSE 8.1 mph - N/A   Clear
7:00 AM 75 °F - 56 °F 41% 29.95 in 6 mi SSE 6.9 mph - -  
7:00 AM 75.2 °F - 55.4 °F 50% 29.95 in - SSE 6.9 mph - N/A   Clear
8:00 AM 78.8 °F - 50.0 °F 36% 29.98 in - SSE 10.4 mph - N/A   Clear
9:00 AM 82.4 °F 82.9 °F 60.8 °F 48% 29.98 in - SSE 12.7 mph - N/A   Clear
10:00 AM 87 °F - 59 °F 29% 29.99 in 4 mi SSE 11.5 mph - -   Widespread Dust
10:00 AM 86.0 °F 85.4 °F 59.0 °F 40% 29.98 in 3.7 mi SSE 11.5 mph - N/A   Unknown
11:00 AM 89.6 °F 88.1 °F 57.2 °F 33% 29.98 in 5.6 mi South 11.5 mph - N/A   Unknown
12:00 PM 93.2 °F 91.3 °F 55.4 °F 28% 29.95 in - South 10.4 mph - N/A   Clear
1:00 PM 96 °F - 50 °F 12% 29.92 in 6 mi South 8.1 mph - -  
1:00 PM 96.8 °F - 50.0 °F 20% 29.92 in - South 8.1 mph - N/A   Clear
2:00 PM 96.8 °F - 48.2 °F 19% 29.89 in - SE 5.8 mph - N/A   Clear
3:00 PM 98.6 °F - 46.4 °F 17% 29.86 in - Variable 2.3 mph - N/A   Clear
4:00 PM 96 °F - 51 °F 13% 29.88 in 6 mi WNW 11.5 mph - -  
4:00 PM 96.8 °F - 51.8 °F 22% 29.86 in - WNW 11.5 mph - N/A   Clear
5:00 PM 91.4 °F 91.4 °F 60.8 °F 36% 29.89 in - NW 11.5 mph - N/A   Clear
6:00 PM 87.8 °F 93.8 °F 71.6 °F 58% 29.89 in - NNW 9.2 mph - N/A   Clear
7:00 PM 86 °F - 71 °F 53% 29.90 in 6 mi North 5.8 mph - -  
7:00 PM 86.0 °F 91.8 °F 71.6 °F 62% 29.89 in - North 5.8 mph - N/A   Clear
8:00 PM 84.2 °F 88.4 °F 69.8 °F 62% 29.92 in - NNE 8.1 mph - N/A   Clear
9:00 PM 82.4 °F 87.2 °F 71.6 °F 70% 29.92 in - NE 8.1 mph - N/A   Clear
10:00 PM 82 °F - 69 °F 57% 29.94 in 6 mi ENE 8.1 mph - -  
10:00 PM 82.4 °F 86.3 °F 69.8 °F 66% 29.92 in - ENE 8.1 mph - N/A   Clear
11:00 PM 82.4 °F 84.6 °F 66.2 °F 58% 29.92 in - East 8.1 mph - N/A   Clear